User: anonymous   Login
Location: Lussas
(44.6119°N, 4.4726°E)
Time: 07:54:32
(UTC+00:00)
Language:

COSMOS 2455 - Orbit

View from above orbital plane
View from above orbital plane
View from above satellite
View from above satellite

Ground track
Ground track

The orbit data is extracted from the following two-line orbital elements,

1 36095U 09063A   21058.03809515 -.00000026  00000-0  35421-4 0  9996
2 36095  67.1470 280.2860 0004909 243.2062 116.8521 13.96775620574902
Epoch (UTC): 27 February 2021 00:54:51
Eccentricity: 0.0004909
inclination: 67.1470°
perigee height: 901 km
apogee height: 908 km
right ascension of ascending node: 280.2860°
argument of perigee: 243.2062°
revolutions per day: 13.96775620
mean anomaly at epoch: 116.8521°
orbit number at epoch: 57490

The dashed part of the orbit path shows where the satellite is in the earth's shadow,  

DLR